Temperature
11 10 10 11 12 13 13 13 12 12 13 13 12 12 12 13 13 13 13 13 12 11 10 10 10 10 10 10 10 10 10 11 11 11 11 11 11 10 10 10 10 10 10 10
10 10 11 12 13 13 13 12 12 12 13 13 12 12 12 12 12 13 13 13 12 11 11 10 9 9 9 10 10 10 10 10 10 10 10 10 10 10 9 9 9 9 10 10
10 10 12 13 13 13 12 12 12 12 12 12 12 11 12 13 13 13 13 13 12 12 11 10 9 9 9 9 9 9 10 10 10 10 9 9 9 9 9 9 9 9 9 9
10 11 12 11 11 12 11 12 12 12 11 11 12 10 12 12 12 12 13 12 12 12 11 10 9 9 9 9 9 9 9 9 9 9 9 9 9 8 8 8 8 8 8 8
9 10 10 10 10 11 10 12 12 12 11 11 12 10 11 13 12 12 12 12 12 11 11 10 9 9 9 9 9 9 9 9 9 9 9 8 8 8 8 8 8 8 8 8
10 10 10 10 10 11 11 11 11 11 10 10 11 11 11 11 12 13 12 12 12 11 10 10 9 9 8 8 9 9 8 8 9 8 8 8 8 8 8 8 8 8 7 7
10 10 10 10 10 11 11 10 9 9 9 9 11 10 10 12 13 12 12 12 11 11 10 10 9 8 8 8 8 8 8 8 8 8 8 8 7 7 7 7 7 7 7 7
9 8 10 10 10 10 10 10 9 9 9 10 10 9 10 12 12 12 12 11 11 10 10 9 9 8 8 8 8 8 8 8 8 8 8 7 7 7 7 7 7 6 6 6
8 8 10 10 10 10 10 9 10 9 9 9 10 11 12 12 11 11 11 11 11 10 10 9 9 8 8 8 8 8 8 8 8 7 7 7 7 7 6 6 6 6 6 6
9 8 9 10 10 9 9 10 9 8 9 9 11 11 10 11 11 11 11 11 10 10 9 9 8 8 8 8 8 8 8 7 7 7 7 7 7 7 6 6 6 6 6 6
10 8 8 9 9 9 9 9 9 9 9 8 9 10 11 11 11 11 11 11 11 10 9 9 8 8 8 8 8 8 8 7 7 7 7 7 7 6 6 6 6 6 6 5
9 8 7 9 9 9 9 10 9 8 8 9 8 8 11 11 11 11 11 11 10 10 9 9 9 8 8 8 8 7 7 7 7 7 7 6 6 6 6 6 6 6 5 5
8 8 7 8 8 8 9 9 10 9 8 7 7 9 11 11 11 11 11 11 10 10 10 9 8 8 8 8 7 7 7 7 7 7 6 6 6 6 6 6 6 5 5 5
8 7 7 8 8 8 8 8 9 8 6 6 7 9 10 10 10 11 11 11 10 10 10 9 8 8 8 7 7 7 7 7 7 6 6 6 6 6 6 6 5 5 5 5
7 7 8 8 8 8 8 8 8 7 7 7 8 8 9 10 10 10 11 10 10 10 9 9 8 8 8 7 7 7 7 7 6 6 6 6 6 6 6 5 5 5 5 4
7 6 6 6 8 8 7 7 8 8 8 8 8 8 10 11 11 10 10 10 9 9 9 9 8 8 7 7 7 7 7 7 6 6 6 6 6 5 5 5 5 5 4 4
7 6 6 6 8 7 6 8 8 7 8 8 7 8 10 9 9 9 9 9 9 8 8 8 8 7 7 7 7 7 6 6 6 6 6 5 5 5 5 5 4 4 4 4
6 6 5 5 6 6 9 9 9 9 9 9 9 9 9 9 9 9 9 8 8 8 8 7 7 7 7 7 6 6 6 6 6 6 5 5 5 5 4 4 4 4 4 4
5 5 5 5 5 7 9 8 8 8 8 9 9 9 9 9 8 8 8 8 7 7 7 7 7 7 7 6 6 6 6 6 5 5 5 5 5 4 4 4 4 3 3 3
4 5 4 5 5 6 9 8 8 8 7 8 8 8 8 8 6 7 8 7 7 7 7 6 6 6 6 6 6 5 5 5 5 5 5 4 4 4 4 3 3 3 3 2
3 3 3 4 5 6 8 7 7 7 7 8 8 8 7 7 6 7 7 6 6 6 6 6 6 6 6 5 5 5 5 5 5 4 4 4 4 3 3 3 3 2 2 2
4 4 4 4 4 6 7 7 6 7 8 8 7 7 7 6 6 6 6 5 5 5 5 5 5 5 5 5 4 4 4 4 4 4 4 3 3 3 3 3 2 2 2 1
6 6 6 6 6 8 8 8 8 8 7 7 6 6 6 5 5 5 5 5 5 5 5 5 4 4 4 4 4 4 4 3 3 3 3 3 3 2 2 2 2 2 1 1
7 7 6 6 7 8 8 8 8 7 7 6 6 5 5 5 5 4 4 4 4 4 4 4 4 4 4 4 4 3 3 3 3 3 3 3 2 2 2 2 1 1 1 1
6 6 5 5 6 7 7 7 7 6 6 5 5 5 4 4 4 4 4 3 3 3 3 3 3 3 3 3 3 3 3 2 2 2 2 2 2 2 1 1 1 1 1 0
5 5 4 5 6 6 6 6 6 5 5 4 4 4 4 3 3 3 3 3 3 3 3 3 3 3 3 3 3 3 2 2 2 2 2 1 1 1 1 1 0 0 -0 -0
Wind_Speed
1 3 4 3 2 1 3 5 6 4 1 1 4 4 5 6 5 5 6 6 7 7 7 7 6 6 5 4 3 3 3 4 4 3 3 3 3 4 3 4 7 9 9 9
4 6 5 3 3 1 4 6 5 4 2 1 2 3 5 7 7 6 5 5 6 6 7 7 6 6 4 4 3 3 3 3 3 3 2 1 2 2 1 3 5 7 8 8
7 4 3 3 4 4 6 4 4 3 2 2 1 2 5 6 7 6 5 4 5 6 7 7 6 6 5 4 3 2 2 2 2 3 2 3 2 2 2 3 3 5 7 7
6 5 5 6 7 6 4 4 3 2 1 1 2 2 4 7 7 7 6 5 5 6 6 6 6 6 5 5 4 2 1 1 1 1 2 2 2 2 2 2 2 3 5 6
5 7 7 7 7 7 3 3 2 1 0 1 2 2 4 6 6 7 7 7 6 5 6 6 6 6 5 5 4 2 2 1 1 0 1 1 2 2 2 3 3 3 3 5
4 3 5 4 4 4 1 1 2 1 1 1 3 3 4 3 5 5 6 7 6 6 5 5 6 6 5 5 4 3 2 2 1 1 1 1 2 2 3 3 3 3 2 3
3 4 2 3 2 1 3 2 2 1 1 3 2 2 5 1 3 3 4 5 6 6 5 5 6 6 5 5 5 4 3 2 2 2 1 1 2 2 2 3 2 3 2 3
2 2 3 3 4 3 3 3 2 0 1 1 1 4 4 3 5 5 4 4 5 5 5 5 6 6 6 6 5 5 4 3 3 2 2 2 2 2 1 2 2 2 2 2
2 1 2 2 3 4 2 1 2 1 3 3 4 4 2 5 4 3 4 4 4 4 5 5 5 6 6 6 6 5 5 4 4 3 3 3 2 2 2 2 1 1 2 2
3 1 1 1 2 1 3 3 1 0 1 3 4 4 3 4 4 4 4 4 4 4 4 5 5 5 5 5 5 5 5 5 4 4 3 3 3 3 3 2 2 2 2 2
4 1 1 2 3 2 2 2 2 2 1 2 4 3 1 3 3 3 3 3 3 4 5 5 4 5 5 5 5 5 5 5 5 5 4 4 3 3 3 2 2 2 2 2
4 2 2 2 2 3 2 3 2 1 3 3 3 5 3 5 4 2 1 2 2 3 3 4 4 5 5 5 5 6 5 5 5 5 4 4 4 4 3 3 3 2 2 2
4 2 2 1 2 2 3 4 4 3 2 3 3 5 3 4 2 1 1 1 2 3 4 4 4 4 5 5 6 6 6 6 5 5 5 5 5 4 4 4 3 2 2 2
3 3 4 4 2 1 4 5 6 5 4 5 8 7 4 2 2 2 3 3 3 4 4 4 4 4 5 5 5 6 6 6 5 5 6 6 6 5 5 4 3 3 2 2
3 4 6 8 9 8 9 9 9 10 10 8 8 8 8 6 5 4 4 3 3 3 3 3 4 4 4 4 5 5 5 5 5 6 6 6 5 5 4 4 4 3 3 2
2 4 5 7 8 8 11 12 12 12 12 14 14 13 8 4 3 4 5 4 4 4 4 3 4 4 4 5 5 4 5 5 5 6 7 6 5 5 5 5 4 4 3 3
2 3 3 5 4 6 8 9 11 8 8 8 11 8 5 4 4 5 5 4 4 4 4 4 4 4 4 4 4 5 5 4 5 6 6 6 6 6 6 5 5 5 4 3
3 3 3 5 6 6 4 2 1 5 7 8 8 7 5 5 5 5 4 3 4 4 4 4 4 4 3 3 3 3 4 5 5 6 6 6 6 6 5 5 5 5 4 4
4 3 3 3 5 8 4 3 2 2 4 4 5 4 4 4 6 4 1 2 3 4 5 4 4 3 3 3 3 3 4 4 5 6 6 6 6 6 6 6 6 5 4 4
2 3 3 4 5 5 2 4 3 2 3 3 3 3 4 4 4 3 4 5 6 5 4 4 4 4 4 4 2 3 4 5 6 6 6 5 6 6 7 6 6 4 4 4
4 4 6 7 6 7 1 4 3 1 2 2 2 3 3 3 5 5 7 7 6 6 6 5 5 5 5 3 3 4 5 6 6 5 4 4 5 5 5 5 4 4 4 4
8 7 7 6 7 8 4 5 3 3 1 2 3 3 5 6 7 7 8 8 8 7 6 6 5 5 5 4 4 5 6 5 4 4 4 4 5 4 4 4 4 4 5 5
8 8 5 7 8 2 6 4 3 0 2 3 4 5 6 7 8 9 8 8 8 7 6 5 5 6 5 4 4 6 6 4 3 4 4 4 4 4 4 5 5 4 5 4
5 3 3 5 7 5 4 3 3 3 4 5 6 6 7 9 9 9 9 8 7 7 6 5 5 6 6 5 5 5 4 3 4 4 4 4 4 4 4 4 4 5 5 5
4 3 4 8 8 7 5 4 4 4 4 5 6 7 7 9 10 9 9 8 7 6 6 5 6 7 7 6 5 5 4 4 4 5 4 4 4 5 5 5 5 5 5 6
7 8 7 8 4 4 4 4 4 4 5 6 7 8 8 8 10 9 8 7 7 7 6 6 7 7 7 6 6 5 4 5 5 5 5 4 4 4 4 4 3 5 5 6
Wind_Direction
56 58 45 27 341 303 136 116 103 85 83 127 148 169 181 173 188 191 185 174 167 158 143 134 132 129 124 111 86 68 45 33 23 11 5 7 11 357 5 13 15 7 1 357
67 45 15 345 312 5 94 100 96 97 83 87 147 210 202 187 195 192 192 182 166 152 146 144 145 144 140 126 105 82 53 33 29 20 357 335 324 322 342 4 4 2 358 356
68 33 339 14 36 59 62 69 86 94 92 146 159 245 206 183 185 187 197 193 171 166 165 159 158 155 148 134 115 90 72 46 29 8 345 333 333 330 354 355 354 357 356 358
54 19 21 41 25 19 57 33 64 100 67 194 206 270 216 178 179 187 190 191 187 170 162 157 160 157 147 139 131 133 115 78 45 3 339 335 344 340 332 328 330 351 358 356
52 19 26 40 13 9 55 357 340 295 327 336 223 224 265 162 185 199 191 188 184 171 165 161 155 148 138 134 139 151 159 147 116 3 329 329 330 317 313 322 337 347 351 358
89 53 28 25 14 12 327 315 314 326 32 277 214 198 264 192 197 190 173 170 169 162 160 155 143 137 139 142 149 168 183 183 170 203 260 293 300 309 317 323 330 331 337 351
67 79 61 333 339 4 319 0 30 13 241 243 145 198 253 251 104 117 134 144 148 152 156 159 154 156 164 167 169 183 192 203 197 207 224 240 261 271 285 304 312 322 331 339
37 40 51 11 6 346 338 359 55 281 282 293 168 233 248 91 86 83 97 107 128 146 161 168 169 170 176 179 180 191 198 205 204 209 222 228 239 242 255 278 291 307 314 316
25 38 88 30 353 335 334 31 19 329 300 277 241 220 188 140 136 150 150 155 173 169 170 176 179 176 180 184 189 193 196 206 207 210 219 223 221 230 255 273 283 300 306 307
351 329 187 137 238 243 323 339 325 230 315 289 269 231 200 168 173 167 166 173 177 167 171 183 187 183 185 189 191 191 196 205 209 208 219 220 208 219 233 245 256 272 291 298
331 300 230 207 221 204 189 234 260 276 264 255 297 289 108 119 110 134 153 149 162 176 184 193 192 185 184 185 188 195 203 205 207 206 213 222 215 217 231 232 238 249 270 286
359 317 257 217 109 28 303 263 237 242 265 235 263 271 107 104 88 67 79 130 166 182 186 192 192 187 189 196 198 200 205 207 209 205 207 216 218 219 223 226 234 241 263 276
340 292 290 227 165 185 249 250 257 283 318 254 243 259 143 134 139 166 210 230 220 205 195 200 201 202 207 207 204 203 204 207 205 199 201 210 218 221 222 220 225 228 241 268
311 272 245 261 299 288 249 243 231 220 214 245 237 257 256 267 281 275 260 248 249 237 216 213 214 218 218 213 211 207 205 200 199 199 205 213 217 218 217 216 219 221 222 234
266 272 277 280 279 274 262 253 235 226 226 237 259 275 291 312 316 311 307 303 294 286 268 235 229 234 228 221 220 214 207 201 197 199 209 218 217 209 206 210 214 215 218 223
258 280 302 281 252 252 259 250 243 240 238 247 267 279 281 295 334 331 325 320 307 298 290 277 257 248 243 235 223 218 216 208 198 205 213 213 210 205 205 209 210 209 211 210
237 277 301 285 303 300 269 241 221 221 220 228 248 259 298 318 332 321 315 304 290 297 300 293 279 261 254 247 229 220 220 207 204 212 215 210 206 207 207 205 204 207 210 209
263 264 262 291 319 264 241 86 129 232 247 236 250 277 306 314 319 304 296 303 314 318 309 296 285 278 269 259 244 225 214 207 208 213 216 211 205 207 204 203 209 210 207 207
246 249 257 270 283 276 246 160 146 234 277 255 249 280 313 339 328 313 25 22 316 309 306 297 289 285 278 270 256 239 224 214 212 217 218 212 206 205 203 207 214 212 205 206
261 259 255 248 259 262 249 122 90 61 269 27 40 354 339 346 316 283 353 346 323 316 308 301 299 291 278 271 263 249 240 226 225 225 221 212 206 205 207 209 209 205 199 203
175 201 221 236 250 266 232 138 125 205 236 36 20 339 317 278 257 291 319 314 306 298 296 291 283 275 268 265 249 248 247 240 234 225 216 209 207 208 207 204 200 193 191 193
185 190 202 204 226 250 162 139 189 240 335 327 314 304 293 285 289 296 296 293 292 288 285 283 277 273 269 259 244 249 251 249 236 219 213 210 208 208 204 199 198 187 186 196
204 205 205 208 222 236 160 193 223 326 300 298 292 287 287 287 286 287 288 287 286 283 281 277 273 275 270 253 237 248 257 248 229 222 220 213 207 205 198 193 192 190 192 200
225 206 249 268 263 269 248 246 269 284 282 287 285 284 284 282 284 287 288 286 284 283 281 276 273 272 271 261 248 246 254 240 225 227 226 213 204 203 197 195 191 195 201 204
249 196 235 259 273 287 272 276 297 303 297 292 287 283 281 283 284 284 286 285 284 285 283 276 267 268 270 266 258 250 239 225 228 231 227 220 211 202 198 200 202 204 207 201
219 220 227 248 252 260 283 312 322 301 291 289 289 288 282 279 282 284 283 281 282 284 285 282 273 269 271 267 262 252 231 218 221 229 226 220 215 207 201 201 209 208 204 209
Height
1492 1494 1497 1494 1491 1489 1488 1491 1496 1499 1498 1499 1502 1503 1503 1504 1505 1506 1508 1510 1512 1514 1515 1516 1517 1518 1518 1519 1519 1519 1519 1519 1519 1519 1518 1518 1518 1518 1518 1517 1516 1516 1515 1515
1496 1499 1497 1493 1491 1489 1490 1495 1500 1501 1499 1500 1502 1503 1501 1502 1503 1505 1506 1508 1510 1512 1514 1515 1516 1516 1517 1518 1518 1518 1518 1517 1517 1517 1517 1516 1516 1516 1516 1516 1515 1514 1514 1513
1500 1502 1497 1494 1493 1492 1495 1499 1501 1502 1501 1500 1503 1505 1500 1499 1501 1503 1505 1506 1508 1510 1512 1513 1514 1515 1515 1516 1516 1517 1516 1516 1516 1516 1515 1515 1514 1514 1514 1513 1513 1512 1511 1510
1502 1501 1499 1498 1499 1496 1502 1500 1500 1502 1506 1508 1504 1514 1499 1497 1499 1501 1503 1504 1506 1508 1510 1511 1512 1513 1514 1514 1515 1515 1515 1515 1515 1514 1514 1513 1513 1512 1512 1511 1510 1510 1509 1508
1507 1505 1503 1505 1506 1502 1505 1502 1502 1502 1504 1508 1505 1511 1504 1494 1499 1499 1500 1502 1504 1506 1508 1509 1510 1511 1512 1512 1513 1513 1513 1513 1513 1512 1512 1511 1511 1510 1509 1509 1508 1507 1506 1505
1508 1508 1508 1508 1507 1506 1505 1504 1503 1503 1508 1515 1505 1510 1507 1497 1495 1494 1496 1499 1502 1504 1506 1507 1508 1509 1510 1510 1511 1511 1511 1511 1511 1510 1510 1509 1509 1508 1507 1507 1506 1505 1504 1503
1510 1510 1511 1510 1508 1508 1507 1511 1516 1518 1518 1515 1504 1509 1506 1493 1491 1492 1495 1497 1500 1502 1504 1505 1506 1507 1507 1508 1508 1509 1509 1508 1508 1508 1507 1507 1506 1506 1505 1504 1503 1502 1501 1500
1515 1518 1513 1512 1513 1512 1509 1511 1521 1523 1519 1513 1510 1512 1501 1491 1491 1493 1495 1497 1499 1501 1502 1503 1504 1505 1505 1506 1506 1506 1506 1506 1505 1505 1504 1504 1503 1503 1502 1501 1500 1499 1498 1497
1517 1518 1514 1514 1514 1513 1511 1513 1513 1519 1516 1518 1509 1498 1494 1492 1493 1494 1496 1497 1498 1500 1501 1502 1502 1503 1503 1503 1503 1504 1503 1503 1503 1502 1501 1501 1500 1500 1499 1499 1498 1497 1495 1494
1515 1519 1514 1514 1514 1515 1515 1513 1516 1519 1521 1518 1505 1499 1501 1495 1494 1494 1495 1496 1497 1498 1499 1500 1500 1500 1501 1501 1501 1501 1500 1500 1499 1499 1498 1498 1497 1497 1496 1496 1495 1494 1493 1492
1515 1519 1517 1515 1514 1513 1516 1515 1514 1516 1516 1521 1516 1507 1493 1493 1492 1493 1494 1495 1496 1496 1497 1498 1498 1498 1498 1498 1498 1498 1497 1497 1496 1496 1495 1495 1494 1494 1493 1492 1492 1491 1490 1489
1517 1519 1520 1513 1511 1512 1512 1511 1513 1521 1518 1515 1519 1512 1491 1491 1491 1493 1493 1494 1495 1495 1495 1495 1496 1496 1495 1495 1495 1494 1494 1494 1493 1493 1492 1491 1491 1490 1490 1489 1488 1488 1487 1486
1519 1520 1522 1516 1517 1515 1513 1511 1511 1513 1517 1519 1519 1509 1492 1491 1491 1492 1492 1493 1493 1493 1493 1493 1493 1493 1492 1492 1491 1491 1491 1490 1490 1489 1488 1488 1487 1487 1486 1485 1485 1484 1483 1482
1521 1520 1521 1519 1514 1513 1513 1511 1511 1514 1522 1518 1510 1501 1494 1492 1491 1491 1491 1491 1491 1491 1490 1490 1490 1490 1489 1489 1488 1488 1487 1487 1486 1485 1485 1484 1484 1483 1482 1482 1481 1480 1480 1479
1520 1520 1515 1513 1510 1510 1510 1509 1508 1510 1510 1511 1502 1497 1493 1491 1490 1489 1489 1488 1488 1488 1488 1487 1487 1486 1486 1485 1484 1484 1483 1483 1482 1481 1481 1480 1480 1479 1479 1478 1478 1477 1476 1475
1519 1519 1517 1514 1506 1506 1506 1503 1502 1502 1502 1500 1498 1495 1490 1488 1488 1487 1487 1486 1486 1486 1485 1484 1484 1483 1482 1481 1480 1480 1479 1478 1478 1477 1476 1476 1475 1475 1475 1474 1474 1473 1472 1472
1518 1519 1519 1515 1504 1505 1503 1492 1494 1495 1492 1494 1495 1491 1487 1487 1486 1486 1485 1484 1484 1483 1482 1481 1480 1479 1478 1477 1476 1475 1474 1474 1473 1473 1472 1471 1471 1471 1470 1470 1469 1469 1468 1468
1518 1518 1519 1517 1512 1511 1491 1485 1485 1487 1487 1487 1486 1485 1485 1486 1485 1484 1483 1482 1481 1481 1479 1478 1477 1475 1474 1473 1472 1471 1470 1469 1468 1468 1467 1467 1466 1466 1466 1465 1465 1465 1464 1464
1516 1518 1518 1517 1513 1501 1487 1485 1486 1487 1486 1483 1483 1483 1484 1483 1483 1482 1481 1480 1479 1478 1476 1475 1473 1472 1470 1469 1468 1466 1465 1464 1463 1463 1462 1462 1462 1461 1461 1460 1460 1460 1460 1459
1517 1517 1520 1515 1512 1502 1487 1485 1485 1488 1488 1483 1482 1483 1483 1483 1485 1482 1479 1478 1477 1475 1473 1471 1469 1467 1466 1464 1463 1462 1460 1459 1458 1458 1457 1457 1457 1456 1456 1456 1456 1455 1455 1455
1518 1518 1519 1516 1510 1495 1484 1484 1486 1491 1487 1483 1482 1482 1482 1481 1481 1479 1476 1474 1473 1471 1469 1467 1465 1463 1462 1460 1459 1457 1455 1454 1454 1453 1452 1452 1452 1451 1451 1451 1451 1450 1450 1450
1506 1509 1510 1508 1507 1497 1483 1484 1486 1485 1482 1481 1480 1480 1479 1478 1476 1474 1472 1470 1468 1466 1464 1462 1460 1458 1457 1456 1454 1452 1451 1450 1449 1448 1447 1447 1446 1446 1446 1446 1445 1445 1446 1445
1492 1492 1491 1492 1488 1480 1478 1479 1479 1479 1479 1478 1478 1477 1475 1473 1471 1469 1467 1465 1463 1461 1459 1458 1456 1454 1452 1451 1449 1447 1446 1445 1444 1443 1442 1442 1441 1441 1441 1441 1440 1440 1440 1440
1484 1484 1485 1484 1477 1476 1476 1476 1476 1476 1476 1475 1474 1472 1471 1469 1466 1464 1462 1460 1458 1456 1454 1453 1450 1448 1447 1446 1444 1443 1441 1440 1439 1438 1437 1437 1436 1436 1436 1436 1436 1436 1435 1435
1482 1482 1483 1481 1476 1474 1473 1473 1473 1472 1471 1470 1469 1467 1466 1464 1461 1459 1457 1454 1453 1450 1449 1447 1445 1443 1441 1440 1439 1438 1437 1436 1434 1433 1432 1431 1431 1431 1430 1430 1431 1431 1431 1431
1477 1478 1479 1475 1472 1472 1470 1470 1469 1468 1466 1465 1463 1461 1460 1459 1456 1454 1451 1449 1447 1445 1443 1441 1440 1438 1436 1435 1434 1433 1432 1430 1429 1428 1427 1426 1426 1425 1425 1426 1426 1426 1427 1427